Regional Weather Roundup
Issued by NWS Newport/Morehead, NC

Current Version | Previous Version | Text Only | Print | Product List | Glossary On
Versions: 1 2 3 4 5 6 7 8 9 10 11 12 13 14 15 16 17 18 19 20 21 22 23 24 25 26 27 28 29 30 31 32 33 34 35 36 37 38 39 40 41 42 43 44 45 46 47 48 49 50
000 ASUS42 KMHX 252125 RWRMHX WEATHER ROUNDUP FOR EASTERN NORTH CAROLINA NATIONAL WEATHER SERVICE NEWPORT/MOREHEAD CITY NC 500 PM EDT SUN JUN 25 2017 NOTE: "FAIR" INDICATES FEW OR NO CLOUDS BELOW 12,000 FEET WITH NO SIGNIFICANT WEATHER AND/OR OBSTRUCTIONS TO VISIBILITY NCZ015>017-031-032-045>047-102-103-252200- NORTH COAST CITY SKY/WX TMP DP RH WIND PRES REMARKS EDENTON MOSUNNY 88 67 49 CALM 30.01R ELIZABETH CITY CLOUDY 86 75 69 NE7 29.99S KITTY HAWK PTCLDY 84 69 60 SW5 29.98S MANTEO PTSUNNY 83 74 73 SE8 30.00S $$ NCZ045>047-081-094-103-104-252200- CENTRAL COAST CITY SKY/WX TMP DP RH WIND PRES REMARKS FRISCO CLOUDY 82 75 79 SW7 30.01S $$ NCZ095-097-098-100-101-252200- SOUTHERN COAST CITY SKY/WX TMP DP RH WIND PRES REMARKS BEAUFORT CLOUDY 82 78 88 SW9 30.01S CEDAR ISLAND NOT AVBL JACKSONVILLE CLOUDY 87 78 74 NW7 29.99F HX 100 PINEY ISLAND CLOUDY N/A N/A N/A VRB6 30.00F WILMINGTON CLOUDY 87 72 60 W8 30.01S $$ NCZ011>013-027>030-043-044-078>080-089-090>093-098-252200- COASTAL PLAIN CITY SKY/WX TMP DP RH WIND PRES REMARKS AHOSKIE N/A 82 63 52 CALM 30.01S CLINTON SUNNY 86 69 55 NW6 30.03S ELIZABETHTOWN NOT AVBL GOLDSBORO NOT AVBL GREENVILLE SUNNY 86 64 48 NW3 30.03S HAVELOCK MOSUNNY 85 74 69 N5 30.01S KENANSVILLE PTSUNNY 86 70 58 NW7 30.02R KINSTON SUNNY 86 68 54 N7 30.02F NEW BERN MOSUNNY 87 74 64 NW8 30.01F RICHLANDS PTSUNNY 84 76 76 VRB5 30.02R ROCKY MOUNT SUNNY 85 62 46 N8 30.03S WASHINGTON MOSUNNY N/A N/A N/A NW6 30.01S WHITEVILLE CLOUDY 85 73 67 CALM 30.02R $$ AMZ130-135-150-152-154-156-158-170-250-252-270-ANZ085-086-088-633-658-670-252200- MARINE OBSERVATIONS STATION/POSITION TIME TEMP WIND PRES WAVE SWELL AIR SEA DIR/SP/G HT/PER HT/PER (UTC) (F) (DEG/KT/KT) (MB) (FT/S) (FT/S) CHESAPEAKE LIGHT NOT AVBL 64 E VA BEACH 2050 75 75 230/ 6/ 6 1016.2 4/ 7 3/ 7 DUCK 2100 78 65 90/ 8/ 9 1015.1 2 E DUCK NOT AVBL OREGON INLET 2100 81 82 120/ 6/ 9 1015.6 13E OREGON INLT 2048 76 N/A 3/ 6 2/ 6 HATTERAS CG 2100 81 78 210/ 6/ 7 1015.8 DIAMOND BUOY 2050 79 81 240/ 8/ 10 1016.2 4/ 5 3/ 5 CAPE LOOKOUT 2100 80 220/ 8/ 11 1015.9 BEAUFORT LAB 2100 81 80 220/ 4/ 10 1015.6 30 SE NEW RVR IN 2108 80 81 240/ 10/ 14 1016.5 30 SE NEW RVR IN 2043 81 N/A 4/ 6 27 SE WRIGHTSVLE 2108 79 81 210/ 10/ 14 1016.0 5 SE WRIGHTSVLE 2108 81 80 200/ 10/ 16 1016.5 225 S CAPE HAT 2050 81 81 220/ 12/ 14 1019.3 4/ 6 2/ 6 41 SE CHARLESTON 2110 80 81 230/ 10/ 12 1017.1 $$

USA.gov is the U.S. government's official web portal to all federal, state and local government web resources and services.